www.pogodaiklimat.ru

Погода и климат >> Архив погоды >> Малайзия >> Мерсинг


ПОГОДА в Мерсинге

  • Прогноз погоды в Мерсинге
  • Монитор погоды в Мерсинге

АРХИВ ПОГОДЫ в Мерсинге

Время (UTC), дата Ветер
(напр.,м/с)
 
Видим.   Явления Облачность Т
(С)
Тd
(С)
f
(%)
Тe
(С)
Тes
(С)
Комфортность P
(гПа)
Po
(гПа)
Тmin
(С)
Tmax
(С)
R
(мм)
R24
(мм)
S
(см)
18 18.06 ЮЗ 1 н/о н/о +25.6 +24.7 95 +36 +36 очень
душно
1010.3 1005.2
00 19.06 ЮВ 1 7000 м слаб. дождь 9/4 240 м
[Sc Ac lent Cs]
+25.5 +25.0 97 +36 +37 очень
душно
1010.4 1005.3 +24.7 0.4
06 19.06 В 3 13 км мгла 9/4 600 м
[Cu med, cong Ac lent Ci sp]
+31.9 +27.3 77 +51 +57 опасность
перегрева
1009.2 1004.2 0.0
12 19.06 ЮВ 2 н/о н/о +27.8 +25.8 89 +41 +41 опасность
перегрева
1008.3 1003.2 +32.2
18 19.06 ЮЗ 2 н/о н/о +25.6 +24.7 95 +36 +36 очень
душно
1009.3 1004.2
00 20.06 ЮЗ 1 7000 м мгла 9/3 600 м
[Cu Sc Ac lent Ci sp]
+25.5 +24.6 95 +36 +37 очень
душно
1010.2 1005.1 +24.9 0.0
06 20.06 В 3 9000 м мгла 9/4 540 м
[Cb cap Ac trans Ci sp]
+31.4 +27.2 78 +49 +55 опасность
перегрева
1008.7 1003.7
12 20.06 ЮВ 3 н/о н/о +27.1 +24.5 86 +38 +38 очень
душно
1008.7 1003.6 +33.3
18 20.06 ЮВ 1 н/о н/о +25.2 +24.4 95 +35 +35 очень
душно
1009.4 1004.3 0.8
00 21.06 ЮЗ 2 7000 м дымка 9/4 60 м
[St Ac trans Ci sp]
+24.5 +23.8 96 +33 +34 очень
душно
1009.3 1004.2 +24.3 0.8
06 21.06 В 4 14 км мгла 9/4 540 м
[Cb calv Ac trans Ci sp]
+32.9 +27.1 72 +51 +56 опасность
перегрева
1007.7 1002.7
12 21.06 ЮЗ 2 н/о н/о +24.0 +23.2 95 +32 +32 очень
душно
1007.6 1002.5 +33.7 4
18 21.06 ЮЗ 1 н/о н/о +24.6 +23.9 96 +34 +34 очень
душно
1008.6 1003.5 0.6
00 22.06 ЮЗ 2 7000 м дымка 9/4 30 м
[Sc Ac lent Cs]
+24.6 +24.1 97 +34 +34 очень
душно
1008.5 1003.4 +23.9 4
06 22.06 ЮЗ 4 13 км мгла 9/4 600 м
[Cu med, cong Ac lent Ci sp]
+31.5 +25.8 72 +47 +51 опасность
перегрева
1007.3 1002.3
12 22.06 ЮЗ 3 н/о н/о +25.1 +22.8 87 +33 +33 очень
душно
1007.8 1002.7 +32.1
18 22.06 ЮЗ 2 н/о н/о +24.1 +23.3 95 +32 +32 очень
душно
1008.9 1003.8
00 23.06 ЮЗ 2 7000 м дымка 9/4 30 м
[Sc Ac lent Ci sp]
+23.8 +23.1 96 +32 +32 очень
душно
1008.8 1003.7 +23.5
06 23.06 ЮЗ 4 13 км мгла 9/4 600 м
[Cb calv Ac lent Ci sp]
+33.1 +26.1 67 +49 +54 опасность
перегрева
1006.7 1001.7
12 23.06 ЮЗ 2 н/о н/о +28.1 +23.6 77 +39 +39 очень
душно
1007.5 1002.4 +34.0
18 23.06 Ю 3 н/о н/о +25.9 +24.1 90 +36 +36 очень
душно
1009.2 1004.1
00 24.06 ЮЗ 2 7000 м мгла 9/3 60 м
[Sc Ac trans Ci sp]
+25.0 +23.8 93 +34 +35 очень
душно
1010.2 1005.1 +23.8
06 24.06 ЮЗ 2 8000 м гроза, ливневой дождь 9/4 540 м
[Cb cap Ac trans Cs]
+25.0 +23.8 93 +34 +41 очень
душно
1009.8 1004.7 14
12 24.06 ЮВ 2 н/о н/о +26.4 +25.0 92 +38 +38 очень
душно
1009.2 1004.1 +33.7
18 24.06 ЮЗ 4 н/о н/о +24.8 +23.5 92 +33 +33 очень
душно
1010.4 1005.3
00 25.06 ЮЗ 4 7000 м мгла 9/3 60 м
[Sc Ac trans Ci sp]
+24.5 +23.6 95 +33 +34 очень
душно
1010.9 1005.8 +24.0 14
06 25.06 Ю 3 10 км слаб. дождь 9/4 540 м
[Cb cap Ac trans Cs]
+29.6 +26.3 82 +45 +51 опасность
перегрева
1009.8 1004.8 0.6
12 25.06 ЮВ 2 н/о н/о +26.1 +25.2 95 +38 +38 очень
душно
1009.8 1004.7 +33.9 38

 

Местоположение метеостанции Мерсинг (Малайзия): широта 5.45 долгота 103.83 высота над уровнем моря 44 м.

В архиве по умолчанию представлена погода в Мерсинге за последнюю неделю. Архивные данные за месяц целиком и за предыдущие месяцы, начиная с января 2011 года, Вы можете получить, выбрав интересующий диапазон дат из раскрывающегося списка и нажав кнопку "Ввод!".


*Определитесь, кто Вы:
робот инопланетянин человек

Внимание! Время в таблицах - всемирное. Для получения местного времени необходимо прибавить поправку, которая равна 7 ч.

Смотрите также архив погоды в соседних городах и на ближайших метеорологических станциях:

Погода в Куала-Тренггану (Малайзия) (81 км)
Погода в Кота-Бхару (Малайзия) (189 км)
Погода в Куантане (Малайзия) (198 км)
Погода в Наратхивате (Таиланд) (248 км)
Погода на Нагорье Кэмерон (Малайзия) (294 км)
Погода в Яла Агромете (Таиланд) (306 км)
Погода в Ипохе (Малайзия) (318 км)
Погода в Паттани (Таиланд) (331 км)
Погода в Куала-Лумпуре (Малайзия) (362 км)
Погода в Таремпе (Индонезия) (367 км)

Пояснения к столбцам:

Ветер - указаны скорость ветра в м/с - средняя за 10 мин, порывы в срок и между сроками (в фигурных скобках) и направление, откуда дует ветер: С - северный, СВ - северо-восточный, В - восточный, ЮВ - юго-восточный, Ю - южный, ЮЗ - юго-западный, З - западный, СЗ - северо-западный.
Видимость - горизонтальная дальность видимости в метрах или километрах. При видимости от 1 до 10 км при отсутствии осадков обычно наблюдается дымка, при ухудшении видимости до 1 км и менее - туман. В сухую погоду видимость может ухудшаться дымом, пылью или мглою.
Явления - указаны атмосферные явления, наблюдавшиеся в срок или в последний час перед сроком; фигурными скобками обозначены явления, наблюдавшиеся между сроками (за 1-3 часа до срока); квадратными скобками обозначены град или гололедные отложения с указанием их диаметра в мм.
Облачность - указаны через наклонную черту общая и нижняя облачность в баллах и высота нижней границы облаков в метрах; квадратными скобками обозначены формы облаков: Ci - перистые, Cs - перисто-слоистые, Cc - перисто-кучевые, Ac - высококучевые, As - высокослоистые, Sc - слоисто-кучевые, Ns - слоисто-дождевые, Cu - кучевые, Cb - кучево-дождевые. Подробнее классификацию облаков см. в Атласе облаков (PDF).
T - Температура воздуха - температура, измеренная на высоте 2 м над землей.
Td - Температура точки росы - температура, при понижении до которой содержащийся в воздухе водяной пар достигнет насыщения.
f - Относительная влажность воздуха - влажноcть воздуха, измеренная на высоте 2 м над землей.
Te - Эффективная температура - температура, которую ощущает одетый по сезону человек в тени. Характеристика душности погоды. При расчете учитывается влияние влажности воздуха и скорости ветра на теплоощущения человека.
Tes - Эффективная температура на солнце - температура, которую ощущает человек, с поправкой на солнечный нагрев. Характеристика знойности погоды. Зависит от высоты солнца над горизонтом, облачности и скорости ветра. Ночью, в пасмурную погоду, а также при ветре 12 м/с и более поправка равна нулю.
P - Атмосферное давление - приведенное к уровню моря атмосферное давление.
Po - Атмосферное давление - измеренное на уровне метеостанции атмосферное давление.
Tmin - Минимальная температура - минимум температуры воздуха на высоте 2 м над землей.
Tmax - Максимальная температура - максимум температуры воздуха на высоте 2 м над землей.
R - Количество осадков - Количество выпавших осадков за период времени, мм. При наведении курсора мыши на число - период времени, за который выпало указанное количество осадков.
R24 - Количество осадков - Количество выпавших осадков за 24 часа, мм.
S - Снежный покров - Высота снежного покрова, см. При наведении курсора мыши на число - состояние снежного покрова и степень покрытия местности в баллах.